Volver al catálogo

SWOT

ActivoCienciaLEO
NORAD 54754·PAYLOAD·🇺🇸 United States

Lanzado Dec 16, 2022 desde Vandenberg Space Force Base

Loading…

Próximos Pases (próximas 24 horas)

TLE

ActualizadoSource: CelesTrak SupGP

Época: Sep 14, 2026, 00:00 UTC

1 54754C 22173A   26257.00000000  .00000034  00000+0  23283-4 0  2577
2 54754  77.6083 275.4181 0000198 204.3842  53.8160 14.00172311    11

Sigue SWOT en tiempo real con AllMySat

Download on the App Store